Weather History for Georgetown, DE

Change the Weather History Date:

Tuesday, August 13, 2013

  Actual Average Record
Temperature  
Mean Temperature 79 °F 76 °F  
Max Temperature 86 °F 85 °F 100 °F (2002)
Min Temperature 72 °F 67 °F 49 °F (1971)
Degree Days  
Heating Degree Days 0 0  
Month to date heating degree days 0 0  
Since 1 June heating degree days 0 13  
Since 1 July heating degree days 0 0  
Cooling Degree Days 14 11  
Month to date cooling degree days 143 151  
Year to date cooling degree days 1050 851  
Since 1 June cooling degree days 893 757  
Growing Degree Days 28 (Base 50)    
Moisture  
Dew Point 72 °F    
Average Humidity 75    
Maximum Humidity 94    
Minimum Humidity 55    
Precipitation  
Precipitation 0.01 in 0.09 in 3.35 in (1989)
Month to date precipitation 5.93 1.34  
Year to date precipitation 39.65 27.08  
Sea Level Pressure  
Sea Level Pressure 29.80 in    
Wind  
Wind Speed 6 mph (SW)    
Max Wind Speed 20 mph    
Max Gust Speed 26 mph    
Visibility 8 miles    
Events Rain    
T = Trace of Precipitation, MM = Missing Value Source: NWS Daily Summary

Daily Weather History Graph

Daily Weather History Graph

Search for Another Location

Airport:

Trip Planner

Search our weather history database for the weather conditions in past years. The results will help you decide how hot, cold, wet, or windy it might be!

Date:

Astronomy

Aug. 13, 2013 Rise Set
Actual Time 6:13 AM EDT 7:58 PM EDT
Civil Twilight 5:45 AM EDT 8:26 PM EDT
Nautical Twilight 5:10 AM EDT 9:00 PM EDT
Astronomical Twilight 4:33 AM EDT 9:37 PM EDT
Moon 1:00 PM EDT (8/13) 11:36 PM EDT (8/13)
Length of Visible Light 14h 41m
Length of Day
13h 44m
Waxing Crescent, 41% of the Moon is Illuminated
Aug 13
Waxing Crescent
Aug 14
First Quarter
Aug 20
Full
Aug 28
Last Quarter
Sep 5
New

Hourly Weather History & Observations

Time (EDT) Temp. Heat Index Dew Point Humidity Pressure Visibility Wind Dir Wind Speed Gust Speed Precip Events Conditions
1:54 AM 75.0 °F - 72.0 °F 90% 29.91 in 5.0 mi Calm Calm - N/A   Clear
2:54 AM 75.0 °F - 72.0 °F 90% 29.89 in 5.0 mi Calm Calm - N/A   Clear
3:54 AM 75.0 °F - 73.0 °F 94% 29.88 in 5.0 mi South 3.5 mph - N/A   Clear
4:54 AM 75.0 °F - 73.0 °F 94% 29.86 in 4.0 mi SSE 5.8 mph - N/A   Mist
5:54 AM 73.9 °F - 72.0 °F 93% 29.82 in 5.0 mi South 5.8 mph - 0.00 in   Clear
6:54 AM 75.0 °F - 72.0 °F 90% 29.81 in 5.0 mi South 6.9 mph - N/A   Clear
7:54 AM 78.1 °F - 73.9 °F 87% 29.82 in 5.0 mi SSW 9.2 mph - N/A   Scattered Clouds
8:15 AM 78.8 °F - 73.4 °F 83% 29.81 in 7.0 mi SSW 10.4 mph - N/A   Mostly Cloudy
8:30 AM 78.8 °F - 75.2 °F 89% 29.80 in 7.0 mi South 9.2 mph - N/A   Mostly Cloudy
8:54 AM 79.0 °F - 75.0 °F 88% 29.79 in 7.0 mi SSW 12.7 mph - N/A   Overcast
9:30 AM 78.8 °F - 75.2 °F 89% 29.78 in 5.0 mi SSW 12.7 mph - 0.01 in Rain Light Rain
9:54 AM 80.1 °F 85.4 °F 75.9 °F 87% 29.78 in 5.0 mi SSW 10.4 mph - 0.01 in   Overcast
10:17 AM 82.4 °F 90.9 °F 77.0 °F 84% 29.78 in 6.0 mi SW 15.0 mph 18.4 mph N/A   Haze
10:35 AM 84.2 °F 92.3 °F 75.2 °F 74% 29.77 in 9.0 mi WSW 16.1 mph 23.0 mph N/A   Mostly Cloudy
10:54 AM 84.0 °F 90.2 °F 73.0 °F 69% 29.77 in 10.0 mi SW 16.1 mph 23.0 mph N/A   Scattered Clouds
11:54 AM 84.9 °F 90.7 °F 72.0 °F 65% 29.77 in 10.0 mi West 10.4 mph - N/A   Clear
12:54 PM 82.9 °F 88.0 °F 72.0 °F 69% 29.77 in 10.0 mi West 9.2 mph 17.3 mph N/A   Mostly Cloudy
1:54 PM 82.0 °F 85.9 °F 70.0 °F 67% 29.77 in 10.0 mi Variable 6.9 mph - N/A   Mostly Cloudy
2:54 PM 82.0 °F 85.9 °F 70.0 °F 67% 29.76 in 10.0 mi NW 6.9 mph - N/A   Partly Cloudy
3:54 PM 84.0 °F 86.5 °F 66.9 °F 56% 29.76 in 10.0 mi NW 8.1 mph - N/A   Scattered Clouds
4:54 PM 82.9 °F 84.6 °F 64.9 °F 54% 29.76 in 10.0 mi West 4.6 mph - N/A   Clear
5:54 PM 82.9 °F 85.0 °F 66.0 °F 56% 29.77 in 10.0 mi Variable 3.5 mph - N/A   Partly Cloudy
6:54 PM 81.0 °F 83.3 °F 66.9 °F 62% 29.78 in 10.0 mi Calm Calm - N/A   Clear
7:54 PM 79.0 °F - 70.0 °F 74% 29.78 in 10.0 mi Calm Calm - N/A   Clear
8:54 PM 75.9 °F - 70.0 °F 82% 29.78 in 10.0 mi SW 3.5 mph - N/A   Clear
9:54 PM 73.9 °F - 69.1 °F 85% 29.78 in 10.0 mi Calm Calm - N/A   Clear
10:54 PM 73.9 °F - 70.0 °F 87% 29.78 in 10.0 mi Calm Calm - N/A   Mostly Cloudy
11:54 PM 75.0 °F - 66.9 °F 76% 29.80 in 10.0 mi NNW 9.2 mph - N/A   Overcast